When you browse on this site, cookies collect data to enhance your experience and personalize the content and advertising you see.
Visit our Privacy Policy to learn more. By continuing to use the site, you agree to this use of cookies and data.
  • In Romania
  • List of Countries
  • For 7 days
  • Water Temperature
  • Weather Map
  • Weather Widgets
  • user-avatar
    Login

    Hourly Weather Resht

    Today, 27 February, Thursday

    Time Temperature Precipitation Wind Pressure Humidity
    00:00 +7°C° 0 mm 1 mps 769 mmHg 77%
    01:00 +6°C° 0 mm 2 mps 768 mmHg 76%
    02:00 +5°C° 0 mm 2 mps 768 mmHg 75%
    03:00 +5°C° 0 mm 2 mps 768 mmHg 75%
    04:00 +5°C° 0 mm 2 mps 768 mmHg 74%
    05:00 +5°C° 0 mm 2 mps 768 mmHg 74%
    06:00 +5°C° 0 mm 2 mps 769 mmHg 73%
    07:00 +7°C° 0 mm 2 mps 768 mmHg 69%
    08:00 +9°C° 0 mm 2 mps 768 mmHg 65%
    09:00 +10°C° 0 mm 2 mps 768 mmHg 59%
    10:00 +13°C° 0 mm 2 mps 767 mmHg 56%
    11:00 +14°C° 0 mm 2 mps 767 mmHg 53%
    12:00 +16°C° 0 mm 2 mps 766 mmHg 50%
    13:00 +16°C° 0 mm 2 mps 766 mmHg 50%
    14:00 +16°C° 0 mm 3 mps 765 mmHg 51%
    15:00 +17°C° 0 mm 3 mps 765 mmHg 53%
    16:00 +14°C° 0 mm 3 mps 765 mmHg 59%
    17:00 +14°C° 0 mm 2 mps 765 mmHg 65%
    18:00 +12°C° 0 mm 2 mps 765 mmHg 71%
    19:00 +12°C° 0 mm 2 mps 765 mmHg 71%
    20:00 +12°C° 0 mm 2 mps 765 mmHg 71%
    21:00 +10°C° 0 mm 2 mps 764 mmHg 72%
    22:00 +10°C° 0 mm 2 mps 764 mmHg 71%
    23:00 +10°C° 0 mm 2 mps 764 mmHg 70%

    Tomorrow, 28 February, Friday

    Time Temperature Precipitation Wind Pressure Humidity
    00:00 +10°C° 0 mm 2 mps 764 mmHg 68%
    01:00 +10°C° 0 mm 2 mps 763 mmHg 67%
    02:00 +10°C° 0 mm 2 mps 763 mmHg 66%
    03:00 +10°C° 0 mm 2 mps 762 mmHg 65%
    04:00 +10°C° 0 mm 2 mps 762 mmHg 62%
    05:00 +10°C° 0 mm 2 mps 762 mmHg 60%
    06:00 +10°C° 0 mm 2 mps 762 mmHg 58%
    07:00 +12°C° 0 mm 2 mps 761 mmHg 55%
    08:00 +14°C° 0 mm 2 mps 761 mmHg 52%
    09:00 +16°C° 0 mm 2 mps 761 mmHg 49%
    10:00 +18°C° 0 mm 2 mps 760 mmHg 45%
    11:00 +20°C° 0 mm 2 mps 759 mmHg 41%
    12:00 +21°C° 0 mm 2 mps 759 mmHg 37%
    13:00 +21°C° 0 mm 2 mps 758 mmHg 40%
    14:00 +21°C° 0 mm 2 mps 758 mmHg 42%
    15:00 +21°C° 0 mm 2 mps 757 mmHg 44%
    16:00 +19°C° 0 mm 2 mps 758 mmHg 48%
    17:00 +18°C° 0 mm 2 mps 758 mmHg 52%
    18:00 +16°C° 0 mm 2 mps 758 mmHg 55%
    19:00 +16°C° 0 mm 1 mps 758 mmHg 56%
    20:00 +15°C° 0 mm 1 mps 758 mmHg 56%
    21:00 +15°C° 0 mm 1 mps 758 mmHg 56%
    22:00 +15°C° 0 mm 1 mps 759 mmHg 56%
    23:00 +15°C° 0 mm 2 mps 759 mmHg 56%

    Day after tomorrow, 29 February, Saturday

    Time Temperature Precipitation Wind Pressure Humidity
    00:00 +14°C° 0 mm 2 mps 759 mmHg 56%
    01:00 +14°C° 0 mm 2 mps 760 mmHg 57%
    02:00 +14°C° 0 mm 2 mps 760 mmHg 57%
    03:00 +13°C° 0 mm 1 mps 761 mmHg 58%
    04:00 +13°C° 0 mm 1 mps 761 mmHg 62%
    05:00 +12°C° 0 mm 1 mps 761 mmHg 66%
    06:00 +11°C° 0 mm 1 mps 762 mmHg 70%
    07:00 +12°C° 0 mm 1 mps 762 mmHg 66%
    08:00 +14°C° 0 mm 1 mps 762 mmHg 63%
    09:00 +15°C° 0 mm 1 mps 762 mmHg 59%
    10:00 +16°C° 0 mm 1 mps 761 mmHg 57%
    11:00 +16°C° 0 mm 1 mps 760 mmHg 55%
    12:00 +17°C° 0 mm 2 mps 760 mmHg 52%
    13:00 +17°C° 0 mm 2 mps 759 mmHg 54%
    14:00 +17°C° 0 mm 3 mps 758 mmHg 55%
    15:00 +17°C° 0 mm 3 mps 757 mmHg 57%
    16:00 +16°C° 0 mm 3 mps 757 mmHg 63%
    17:00 +14°C° 0 mm 2 mps 758 mmHg 69%
    18:00 +13°C° 0 mm 2 mps 758 mmHg 74%
    19:00 +13°C° 0 mm 2 mps 758 mmHg 76%
    20:00 +12°C° 0 mm 2 mps 757 mmHg 77%
    21:00 +12°C° 0 mm 1 mps 757 mmHg 78%
    22:00 +12°C° 0 mm 1 mps 757 mmHg 77%
    23:00 +12°C° 0 mm 1 mps 757 mmHg 77%

    1 March, Sunday

    Time Temperature Precipitation Wind Pressure Humidity
    00:00 +12°C° 0 mm 1 mps 757 mmHg 77%
    01:00 +12°C° 0 mm 1 mps 757 mmHg 76%
    02:00 +12°C° 0 mm 1 mps 757 mmHg 76%
    03:00 +11°C° 0 mm 1 mps 756 mmHg 75%
    04:00 +11°C° 0 mm 1 mps 757 mmHg 74%
    05:00 +11°C° 0 mm 1 mps 757 mmHg 74%
    06:00 +11°C° 0 mm 1 mps 757 mmHg 73%
    07:00 +13°C° 0 mm 1 mps 757 mmHg 70%
    08:00 +14°C° 0 mm 1 mps 758 mmHg 67%
    09:00 +15°C° 0 mm 1 mps 758 mmHg 64%
    10:00 +16°C° 0 mm 2 mps 758 mmHg 63%
    11:00 +16°C° 0 mm 3 mps 757 mmHg 63%
    12:00 +17°C° 0 mm 3 mps 757 mmHg 62%
    13:00 +16°C° 0 mm 3 mps 757 mmHg 67%
    14:00 +14°C° 0 mm 4 mps 757 mmHg 72%
    15:00 +13°C° 0 mm 4 mps 757 mmHg 76%
    16:00 +12°C° 0.4 mm 4 mps 758 mmHg 81%
    17:00 +12°C° 0.4 mm 4 mps 759 mmHg 85%
    18:00 +11°C° 0.4 mm 4 mps 760 mmHg 89%
    19:00 +10°C° 2 mm 4 mps 760 mmHg 89%
    20:00 +10°C° 2 mm 4 mps 761 mmHg 90%
    21:00 +9°C° 2 mm 3 mps 762 mmHg 90%
    22:00 +8°C° 2.1 mm 4 mps 762 mmHg 90%
    23:00 +8°C° 2.1 mm 4 mps 762 mmHg 91%

    2 March, Monday

    Time Temperature Precipitation Wind Pressure Humidity
    00:00 +7°C° 2.1 mm 5 mps 763 mmHg 91%
    01:00 +7°C° 1.3 mm 5 mps 763 mmHg 91%
    02:00 +7°C° 1.3 mm 5 mps 763 mmHg 91%
    03:00 +7°C° 1.3 mm 5 mps 764 mmHg 91%
    04:00 +6°C° 1.5 mm 5 mps 764 mmHg 91%
    05:00 +6°C° 1.5 mm 5 mps 765 mmHg 91%
    06:00 +6°C° 1.5 mm 5 mps 765 mmHg 91%
    07:00 +6°C° 1.9 mm 5 mps 766 mmHg 91%
    08:00 +6°C° 1.9 mm 5 mps 766 mmHg 91%
    09:00 +6°C° 1.9 mm 5 mps 767 mmHg 92%
    10:00 +6°C° 1.7 mm 4 mps 767 mmHg 91%
    11:00 +5°C° 1.7 mm 4 mps 767 mmHg 91%
    12:00 +5°C° 1.7 mm 4 mps 767 mmHg 90%
    13:00 +5°C° 1 mm 3 mps 767 mmHg 90%
    14:00 +5°C° 1 mm 3 mps 767 mmHg 90%
    15:00 +5°C° 1 mm 3 mps 767 mmHg 90%
    16:00 +6°C° 0.3 mm 2 mps 768 mmHg 89%
    17:00 +6°C° 0.3 mm 2 mps 768 mmHg 88%
    18:00 +7°C° 0.3 mm 1 mps 769 mmHg 87%
    19:00 +7°C° 0.1 mm 1 mps 769 mmHg 87%
    20:00 +7°C° 0.1 mm 1 mps 769 mmHg 87%
    21:00 +7°C° 0.1 mm 1 mps 770 mmHg 86%
    22:00 +7°C° 0 mm 1 mps 770 mmHg 86%
    23:00 +7°C° 0 mm 1 mps 769 mmHg 87%

    3 March, Tuesday

    Time Temperature Precipitation Wind Pressure Humidity
    00:00 +6°C° 0 mm 1 mps 769 mmHg 87%
    01:00 +6°C° 0 mm 1 mps 769 mmHg 84%
    02:00 +6°C° 0 mm 1 mps 769 mmHg 82%
    03:00 +6°C° 0 mm 1 mps 769 mmHg 80%
    04:00 +6°C° 0 mm 1 mps 769 mmHg 78%
    05:00 +6°C° 0 mm 1 mps 769 mmHg 77%
    06:00 +6°C° 0 mm 1 mps 769 mmHg 75%
    07:00 +8°C° 0 mm 1 mps 769 mmHg 71%
    08:00 +9°C° 0 mm 1 mps 769 mmHg 67%
    09:00 +11°C° 0 mm 1 mps 770 mmHg 63%
    10:00 +12°C° 0 mm 1 mps 769 mmHg 59%
    11:00 +13°C° 0 mm 1 mps 769 mmHg 55%
    12:00 +15°C° 0 mm 2 mps 768 mmHg 51%
    13:00 +15°C° 0 mm 2 mps 768 mmHg 52%
    14:00 +14°C° 0 mm 3 mps 768 mmHg 53%
    15:00 +14°C° 0 mm 3 mps 767 mmHg 54%
    16:00 +13°C° 0 mm 3 mps 768 mmHg 60%
    17:00 +11°C° 0 mm 3 mps 768 mmHg 66%
    18:00 +10°C° 0 mm 3 mps 768 mmHg 72%
    19:00 +9°C° 0 mm 2 mps 768 mmHg 73%
    20:00 +9°C° 0 mm 2 mps 769 mmHg 75%
    21:00 +10°C° 0 mm 1 mps 769 mmHg 76%
    22:00 +9°C° 0 mm 1 mps 769 mmHg 76%
    23:00 +9°C° 0 mm 1 mps 769 mmHg 76%
    Show more